• In Belarus
  • List of Countries
  • For 7 days
  • Water Temperature
  • Satellite Maps
  • Weather Map
  • Weather Widgets
  • user-avatar
    Login

    Hourly Weather Naftalan

    Today, 21 November, Tuesday

    Time Temperature Precipitation Wind Pressure Humidity
    00:00 +16°C° 0 mm 2 mps 761 mmHg 61%
    01:00 +16°C° 0 mm 2 mps 760 mmHg 58%
    02:00 +15°C° 0 mm 2 mps 760 mmHg 55%
    03:00 +15°C° 0 mm 2 mps 760 mmHg 52%
    04:00 +15°C° 0 mm 2 mps 760 mmHg 49%
    05:00 +15°C° 0 mm 2 mps 760 mmHg 46%
    06:00 +14°C° 0 mm 3 mps 759 mmHg 43%
    07:00 +16°C° 0 mm 3 mps 759 mmHg 42%
    08:00 +16°C° 0 mm 3 mps 759 mmHg 41%
    09:00 +17°C° 0 mm 2 mps 759 mmHg 40%
    10:00 +19°C° 0 mm 3 mps 758 mmHg 37%
    11:00 +20°C° 0 mm 3 mps 758 mmHg 34%
    12:00 +21°C° 0 mm 3 mps 757 mmHg 31%
    13:00 +21°C° 0 mm 2 mps 757 mmHg 31%
    14:00 +21°C° 0 mm 2 mps 756 mmHg 31%
    15:00 +23°C° 0 mm 2 mps 756 mmHg 32%
    16:00 +20°C° 0 mm 2 mps 756 mmHg 34%
    17:00 +19°C° 0 mm 2 mps 756 mmHg 37%
    18:00 +18°C° 0 mm 2 mps 756 mmHg 40%
    19:00 +18°C° 0 mm 2 mps 756 mmHg 40%
    20:00 +17°C° 0 mm 2 mps 755 mmHg 40%
    21:00 +17°C° 0 mm 2 mps 755 mmHg 41%
    22:00 +17°C° 0 mm 2 mps 755 mmHg 40%
    23:00 +16°C° 0 mm 3 mps 754 mmHg 40%

    Tomorrow, 22 November, Wednesday

    Time Temperature Precipitation Wind Pressure Humidity
    00:00 +16°C° 0 mm 3 mps 754 mmHg 40%
    01:00 +14°C° 0 mm 3 mps 754 mmHg 40%
    02:00 +14°C° 0 mm 3 mps 754 mmHg 41%
    03:00 +14°C° 0 mm 4 mps 754 mmHg 42%
    04:00 +14°C° 0 mm 5 mps 754 mmHg 43%
    05:00 +13°C° 0 mm 5 mps 754 mmHg 44%
    06:00 +13°C° 0 mm 6 mps 754 mmHg 46%
    07:00 +14°C° 0 mm 6 mps 755 mmHg 46%
    08:00 +14°C° 0 mm 7 mps 756 mmHg 45%
    09:00 +15°C° 0 mm 7 mps 756 mmHg 45%
    10:00 +16°C° 0 mm 8 mps 756 mmHg 46%
    11:00 +16°C° 0 mm 8 mps 757 mmHg 46%
    12:00 +17°C° 0 mm 8 mps 757 mmHg 47%
    13:00 +17°C° 0 mm 8 mps 758 mmHg 47%
    14:00 +16°C° 0 mm 9 mps 758 mmHg 48%
    15:00 +16°C° 0 mm 9 mps 758 mmHg 49%
    16:00 +15°C° 0.1 mm 9 mps 759 mmHg 53%
    17:00 +13°C° 0.1 mm 9 mps 760 mmHg 58%
    18:00 +12°C° 0.1 mm 9 mps 760 mmHg 63%
    19:00 +11°C° 0 mm 9 mps 761 mmHg 63%
    20:00 +11°C° 0 mm 9 mps 761 mmHg 63%
    21:00 +11°C° 0 mm 8 mps 761 mmHg 64%
    22:00 +10°C° 0 mm 9 mps 761 mmHg 63%
    23:00 +10°C° 0 mm 9 mps 762 mmHg 63%

    Day after tomorrow, 23 November, Thursday

    Time Temperature Precipitation Wind Pressure Humidity
    00:00 +10°C° 0 mm 9 mps 762 mmHg 63%
    01:00 +8°C° 0.1 mm 9 mps 762 mmHg 64%
    02:00 +9°C° 0.1 mm 8 mps 762 mmHg 66%
    03:00 +9°C° 0.1 mm 8 mps 762 mmHg 67%
    04:00 +9°C° 0.3 mm 8 mps 762 mmHg 69%
    05:00 +7°C° 0.3 mm 8 mps 763 mmHg 70%
    06:00 +7°C° 0.3 mm 8 mps 763 mmHg 72%
    07:00 +7°C° 0.3 mm 8 mps 763 mmHg 73%
    08:00 +8°C° 0.3 mm 7 mps 763 mmHg 73%
    09:00 +8°C° 0.3 mm 6 mps 764 mmHg 74%
    10:00 +8°C° 0.2 mm 6 mps 764 mmHg 69%
    11:00 +9°C° 0.2 mm 6 mps 764 mmHg 65%
    12:00 +9°C° 0.2 mm 5 mps 764 mmHg 61%
    13:00 +10°C° 0 mm 4 mps 764 mmHg 59%
    14:00 +11°C° 0 mm 4 mps 763 mmHg 56%
    15:00 +11°C° 0 mm 3 mps 763 mmHg 54%
    16:00 +10°C° 0 mm 2 mps 763 mmHg 59%
    17:00 +9°C° 0 mm 2 mps 764 mmHg 63%
    18:00 +10°C° 0 mm 1 mps 764 mmHg 67%
    19:00 +9°C° 0 mm 1 mps 764 mmHg 68%
    20:00 +8°C° 0 mm 2 mps 764 mmHg 70%
    21:00 +8°C° 0 mm 2 mps 764 mmHg 71%
    22:00 +8°C° 0 mm 3 mps 764 mmHg 71%
    23:00 +8°C° 0 mm 3 mps 764 mmHg 71%

    24 November, Friday

    Time Temperature Precipitation Wind Pressure Humidity
    00:00 +7°C° 0 mm 4 mps 764 mmHg 71%
    01:00 +7°C° 0 mm 5 mps 764 mmHg 67%
    02:00 +7°C° 0 mm 5 mps 764 mmHg 64%
    03:00 +7°C° 0 mm 6 mps 765 mmHg 60%
    04:00 +5°C° 0 mm 7 mps 765 mmHg 54%
    05:00 +5°C° 0 mm 7 mps 765 mmHg 49%
    06:00 +5°C° 0 mm 7 mps 766 mmHg 43%
    07:00 +5°C° 0 mm 7 mps 766 mmHg 41%
    08:00 +5°C° 0 mm 7 mps 767 mmHg 39%
    09:00 +6°C° 0 mm 7 mps 767 mmHg 37%
    10:00 +8°C° 0.1 mm 7 mps 767 mmHg 36%
    11:00 +9°C° 0.1 mm 7 mps 767 mmHg 35%
    12:00 +9°C° 0.1 mm 7 mps 767 mmHg 33%
    13:00 +9°C° 0.1 mm 7 mps 767 mmHg 34%
    14:00 +9°C° 0.1 mm 8 mps 767 mmHg 34%
    15:00 +9°C° 0.1 mm 8 mps 767 mmHg 34%
    16:00 +8°C° 0 mm 7 mps 767 mmHg 35%
    17:00 +8°C° 0 mm 7 mps 767 mmHg 36%
    18:00 +6°C° 0 mm 7 mps 767 mmHg 37%
    19:00 +6°C° 0 mm 7 mps 768 mmHg 39%
    20:00 +5°C° 0 mm 7 mps 768 mmHg 42%
    21:00 +5°C° 0 mm 7 mps 768 mmHg 44%
    22:00 +5°C° 0 mm 7 mps 768 mmHg 45%
    23:00 +4°C° 0 mm 8 mps 768 mmHg 47%

    25 November, Saturday

    Time Temperature Precipitation Wind Pressure Humidity
    00:00 +4°C° 0 mm 8 mps 768 mmHg 49%
    01:00 +4°C° 0 mm 8 mps 768 mmHg 48%
    02:00 +2°C° 0 mm 8 mps 768 mmHg 47%
    03:00 +2°C° 0 mm 8 mps 768 mmHg 47%
    04:00 +2°C° 0 mm 8 mps 769 mmHg 47%
    05:00 +2°C° 0 mm 8 mps 769 mmHg 48%
    06:00 +2°C° 0 mm 8 mps 769 mmHg 48%
    07:00 +4°C° 0 mm 8 mps 770 mmHg 44%
    08:00 +5°C° 0 mm 8 mps 770 mmHg 40%
    09:00 +6°C° 0 mm 9 mps 771 mmHg 37%
    10:00 +7°C° 0 mm 9 mps 771 mmHg 35%
    11:00 +8°C° 0 mm 9 mps 771 mmHg 34%
    12:00 +10°C° 0 mm 9 mps 771 mmHg 33%
    13:00 +10°C° 0 mm 9 mps 771 mmHg 32%
    14:00 +10°C° 0 mm 9 mps 771 mmHg 31%
    15:00 +10°C° 0 mm 9 mps 772 mmHg 30%
    16:00 +9°C° 0 mm 8 mps 772 mmHg 33%
    17:00 +8°C° 0 mm 7 mps 773 mmHg 36%
    18:00 +7°C° 0 mm 6 mps 774 mmHg 39%
    19:00 +7°C° 0 mm 6 mps 774 mmHg 40%
    20:00 +7°C° 0 mm 5 mps 775 mmHg 42%
    21:00 +6°C° 0 mm 5 mps 775 mmHg 43%
    22:00 +6°C° 0 mm 5 mps 775 mmHg 44%
    23:00 +6°C° 0 mm 5 mps 775 mmHg 44%

    26 November, Sunday

    Time Temperature Precipitation Wind Pressure Humidity
    00:00 +6°C° 0 mm 5 mps 775 mmHg 44%
    01:00 +5°C° 0 mm 5 mps 776 mmHg 44%
    02:00 +5°C° 0 mm 4 mps 776 mmHg 44%
    03:00 +5°C° 0 mm 4 mps 776 mmHg 45%
    04:00 +4°C° 0 mm 4 mps 776 mmHg 46%
    05:00 +4°C° 0 mm 4 mps 776 mmHg 47%
    06:00 +3°C° 0 mm 4 mps 776 mmHg 47%
    07:00 +4°C° 0 mm 4 mps 777 mmHg 45%
    08:00 +5°C° 0 mm 4 mps 777 mmHg 42%
    09:00 +6°C° 0 mm 4 mps 777 mmHg 39%
    10:00 +8°C° 0 mm 3 mps 777 mmHg 36%
    11:00 +9°C° 0 mm 3 mps 777 mmHg 34%
    12:00 +10°C° 0 mm 3 mps 776 mmHg 31%
    13:00 +10°C° 0 mm 2 mps 776 mmHg 31%
    14:00 +10°C° 0 mm 2 mps 776 mmHg 30%
    15:00 +11°C° 0 mm 1 mps 775 mmHg 30%
    16:00 +10°C° 0 mm 1 mps 776 mmHg 34%
    17:00 +9°C° 0 mm 1 mps 776 mmHg 38%
    18:00 +8°C° 0 mm 1 mps 776 mmHg 41%
    19:00 +8°C° 0 mm 1 mps 776 mmHg 43%
    20:00 +7°C° 0 mm 1 mps 776 mmHg 45%
    21:00 +7°C° 0 mm 1 mps 776 mmHg 46%
    22:00 +7°C° 0 mm 1 mps 776 mmHg 45%
    23:00 +7°C° 0 mm 1 mps 776 mmHg 44%
    Show more